Overview Statistics Trail Chart Weather Telemetry Raw packets
 

This is the latest recevied weather packets stored in our database for station/object AB4KY. If no packets are shown the sender has not sent any weather packets the latest 10 day(s).

<< 1 2 3 4 5 >>
Time Temp. Humidity Pressure Rain* Wind** Luminosity Snow
1788623186 28.89° C 75% 1012.8 hPa 0 mm - 561 W/m² -
1788622882 30° C 68% 1012.6 hPa 0 mm - 423 W/m² -
1788622577 29.44° C 68% 1012.6 hPa 0 mm - 569 W/m² -
1788622273 29.44° C 66% 1012.6 hPa 0 mm - 551 W/m² -
1788621968 30.56° C 66% 1012.8 hPa 0 mm - 637 W/m² -
1788621662 29.44° C 69% 1012.8 hPa 0 mm - 498 W/m² -
1788621357 28.89° C 68% 1012.5 hPa 0 mm - 476 W/m² -
1788621053 28.33° C 73% 1012.9 hPa 0 mm - 533 W/m² -
1788620748 28.33° C 74% 1012.9 hPa 0 mm - 530 W/m² -
1788620446 27.78° C 72% 1012.7 hPa 0 mm - 563 W/m² -
1788620139 27.78° C 73% 1013 hPa 0 mm - 521 W/m² -
1788619838 27.78° C 73% 1013.1 hPa 0 mm - 492 W/m² -
1788619533 27.78° C 71% 1013.2 hPa 0 mm - 502 W/m² -
1788619232 27.78° C 74% 1013.1 hPa 0 mm - 513 W/m² -
1788618932 27.22° C 76% 1013.2 hPa 0 mm - 469 W/m² -
1788618627 26.67° C 78% 1013 hPa 0 mm - 440 W/m² -
1788618326 26.67° C 79% 1012.9 hPa 0 mm - 393 W/m² -
1788618021 26.67° C 77% 1013.3 hPa 0 mm - 470 W/m² -
1788617715 26.11° C 76% 1013.2 hPa 0 mm - 380 W/m² -
1788617412 26.11° C 78% 1013.6 hPa 0 mm - 360 W/m² -
1788617107 26.11° C 79% 1013.5 hPa 0 mm - 362 W/m² -
1788616805 26.11° C 79% 1013.6 hPa 0 mm - 321 W/m² -
1788616501 25.56° C 81% 1013.5 hPa 0 mm - 309 W/m² -
1788616196 25.56° C 84% 1013.7 hPa 0 mm - 296 W/m² -
1788615895 25.56° C 81% 1013.6 hPa 0 mm - 276 W/m² -

* Rain latest hour (hover to see other rain measurements)
** Current wind speed in m/s (hover to see current wind gust speed)